This is the latest recevied weather packets stored in our database for station/object VE3VGJ. If no packets are shown the sender has not sent any weather packets the latest 10 day(s).
| Time | Temp. | Humidity | Pressure | Rain* | Wind** | Luminosity | Snow |
|---|---|---|---|---|---|---|---|
| 1778099684 | 7.22° C | 83% | 1010.5 hPa | 0 mm | - | 65 W/m² | - |
| 1778099381 | 7.22° C | 84% | 1010.6 hPa | 0 mm | - | 75 W/m² | - |
| 1778099078 | 7.22° C | 84% | 1010.7 hPa | 0 mm | - | 54 W/m² | - |
| 1778098775 | 7.22° C | 84% | 1010.7 hPa | 0 mm | - | 66 W/m² | - |
| 1778098472 | 7.22° C | 84% | 1010.6 hPa | 0 mm | - | 74 W/m² | - |
| 1778098169 | 7.22° C | 84% | 1010.4 hPa | 0 mm | - | 63 W/m² | - |
| 1778097865 | 7.78° C | 84% | 1010.5 hPa | 0 mm | - | 46 W/m² | - |
| 1778097562 | 7.78° C | 84% | 1010.3 hPa | 0 mm | - | 51 W/m² | - |
| 1778097259 | 7.22° C | 83% | 1010.5 hPa | 0 mm | - | 80 W/m² | - |
| 1778096955 | 7.78° C | 83% | 1010.5 hPa | 0 mm | - | 91 W/m² | - |
| 1778096653 | 7.78° C | 82% | 1010.5 hPa | 0 mm | - | 131 W/m² | - |
| 1778096349 | 7.78° C | 82% | 1010.6 hPa | 0 mm | - | 162 W/m² | - |
| 1778096047 | 7.78° C | 83% | 1010.4 hPa | 0 mm | - | 162 W/m² | - |
| 1778095743 | 7.78° C | 84% | 1010.3 hPa | 0 mm | - | 204 W/m² | - |
| 1778095440 | 7.22° C | 83% | 1010.4 hPa | 0 mm | - | 180 W/m² | - |
| 1778095137 | 7.22° C | 84% | 1010.6 hPa | 0 mm | - | 183 W/m² | - |
| 1778094833 | 7.22° C | 84% | 1010.7 hPa | 0 mm | - | 171 W/m² | - |
| 1778094530 | 7.22° C | 84% | 1010.5 hPa | 0 mm | - | 164 W/m² | - |
| 1778094226 | 7.22° C | 86% | 1010.4 hPa | 0 mm | - | 144 W/m² | - |
| 1778093923 | 7.22° C | 85% | 1010.7 hPa | 0 mm | - | 132 W/m² | - |
| 1778093620 | 7.22° C | 85% | 1010.4 hPa | 0 mm | - | 147 W/m² | - |
| 1778093317 | 7.22° C | 87% | 1010.4 hPa | 0 mm | - | 162 W/m² | - |
| 1778093014 | 7.22° C | 86% | 1010.5 hPa | 0 mm | - | 162 W/m² | - |
| 1778092712 | 7.22° C | 85% | 1010.7 hPa | 0 mm | - | 181 W/m² | - |
| 1778092407 | 7.22° C | 84% | 1010.4 hPa | 0 mm | - | 174 W/m² | - |
* Rain latest hour (hover to see other rain measurements)
** Current wind speed in m/s (hover to see current wind gust speed)